User: anonymous   Login
Location: Newark
(44.8672°N, 13.8458°E)
Time: 06:53:22
(UTC+00:00)
Language:

Envisat - Orbit

View from above orbital plane
View from above orbital plane
View from above satellite
View from above satellite

Ground track
Ground track

The orbit data is extracted from the following two-line orbital elements,

1 27386U 02009A   19236.05086223 -.00000011  00000-0  98979-5 0  9994
2 27386  98.1475 253.6766 0001403  88.8642 328.0052 14.37955268915736
Epoch (UTC): 24 August 2019 01:13:14
Eccentricity: 0.0001403
inclination: 98.1475°
perigee height: 764 km
apogee height: 766 km
right ascension of ascending node: 253.6766°
argument of perigee: 88.8642°
revolutions per day: 14.37955268
mean anomaly at epoch: 328.0052°
orbit number at epoch: 91573

The dashed part of the orbit path shows where the satellite is in the earth's shadow,  

DLR